Location: Napa Soda Springs
(38.3907°N, 122.2794°W)
Time: 21:43:05
(UTC+00:00)

PSLV R/B - Pass Details

Date: 29 October 2020
Orbit: 567 x 599 km, 98.2° (Epoch: 24 November)

Event Time Altitude Azimuth Distance (km) Brightness Sun altitude
Rises 13:55:24 0° 181° (S) 2,820 7.6 -8.0°
Reaches altitude 10° 13:57:38 10° 188° (S) 1,926 6.6 -7.5°
Maximum altitude 14:01:38 44° 260° (W) 838 4.3 -6.8°
Drops below altitude 10° 14:05:40 10° 333° (NNW) 1,945 6.2 -6.0°
Sets 14:07:56 0° 340° (NNW) 2,852 7.1 -5.6°
